IRIDIUM 19 [-]

Last updated on April 8, 2018, 12:19 a.m. UTC

1 24965U 97056A   18097.22249121  .15690194 -15286-5  28846-3 0  9995
2 24965  86.3570 184.0870 0015366  83.3282 277.2194 16.46396628 76277

Satellite is not in orbit.